sat.trackr.live / text

‹ back to catalog

STARLINK-33670

NORAD 63413 · 2025-065Q

PAYLOAD ACTIVE UNKNOWN

§ Identity

Operator
Country
US
Launch date
2025-03-31
Launch site
AFETR
Launch vehicle
Mass (kg)
RCS (m²)

Purposes: comms

External: N2YO · Heavens-Above · Gunter

§ Orbital elements

Epoch: 2026-05-24T22:41:55.836960Z

Period
94.27 min
Inclination
43.0053°
Eccentricity
0.0001273
Mean motion
15.27587265 rev/d
Perigee alt
482.2 km
Apogee alt
483.9 km
Semi-major
6,861.2 km
B*
3.9959e-4
RAAN
36.2694°
Arg perigee
268.2138°
Mean anomaly
91.8568°
Rev number
6,450

§ Raw data

STARLINK-336701 63413U 25065Q   26144.94578515  .00010752  00000+0  39959-3 0  99982 63413  43.0053  36.2694 0001273 268.2138  91.8568 15.27587265 64507

JSON: /api/v1/satellites/63413 · /tle

For live sub-satellite position, see the globe view (requires WebGL).

§ Visibility from observer

Set your observer location to see the next 7 days of passes ≥ 10°. The values pass through the URL so the page stays shareable.

No JS? Fill the form by hand. The geolocation button needs JavaScript.